GEFSMW_850_meantemp_258.txt.gz
Temperature
8 8 8 8 8 9 9 9 10 10 10 10 10 10 10 10 10 11 11 11 11 11 11 11 11 11 11 11 11 11 11 11 11 11 11 11 11 11 11 11 11 11 11
7 7 7 8 8 8 8 9 9 9 9 10 10 10 10 10 10 10 10 11 11 11 11 11 11 11 11 11 11 11 11 11 11 11 10 10 10 10 10 10 11 10 10
6 6 6 7 7 7 8 8 8 9 9 9 9 9 9 9 9 9 10 10 10 11 10 11 11 11 11 11 11 11 11 11 10 10 10 10 10 10 10 10 10 10 10
5 5 5 6 6 7 7 7 8 8 8 8 9 9 9 9 9 9 9 9 10 10 10 10 10 10 10 10 10 11 10 11 10 10 10 10 10 10 9 9 10 10 10
4 4 4 5 5 6 6 7 7 7 8 8 8 8 8 9 9 9 9 9 9 9 9 10 10 10 10 10 10 10 10 10 10 10 10 10 10 10 10 9 9 9 9
3 3 4 4 5 5 5 6 7 7 7 7 8 8 8 8 8 8 8 8 8 9 9 9 9 10 10 10 10 10 10 10 10 10 10 10 10 10 10 9 9 9 9
2 2 3 3 4 4 5 5 6 6 6 7 7 7 7 7 8 8 8 8 8 8 8 9 9 9 9 9 9 10 10 10 10 10 10 9 9 9 9 9 9 8 8
1 1 2 2 3 3 4 4 5 5 6 6 6 7 7 7 7 8 8 8 8 8 8 8 9 9 9 9 9 9 9 9 9 9 9 9 9 9 9 9 9 8 8
-0 0 1 1 2 2 3 4 4 5 5 5 6 6 6 6 7 7 7 7 8 8 8 8 8 8 8 9 9 9 9 9 9 9 9 9 9 9 9 9 9 8 8
-1 -1 -0 0 1 2 2 3 3 4 5 5 5 5 6 6 6 6 7 7 7 7 8 8 8 8 8 8 8 8 8 8 8 8 8 8 8 8 8 8 8 8 8
-2 -1 -1 -1 -0 1 2 2 3 3 4 4 5 5 5 5 6 6 6 7 7 7 7 7 8 8 8 8 8 8 8 8 8 8 8 8 8 8 8 8 8 7 7
-3 -2 -2 -2 -1 -0 1 2 2 3 3 4 4 5 5 5 5 6 6 6 6 7 7 7 7 7 8 8 8 8 8 8 8 8 8 7 7 7 7 7 7 7 7
-3 -3 -2 -2 -2 -1 -0 1 1 2 3 3 4 4 4 4 5 5 5 6 6 6 6 7 7 7 7 7 7 7 7 7 7 7 7 7 7 7 7 7 7 7 7
-4 -4 -3 -3 -2 -2 -1 -0 0 1 2 2 3 3 3 4 4 4 5 5 5 5 6 6 6 6 7 7 7 7 7 7 7 7 7 6 6 6 7 7 7 6 6
-5 -4 -4 -4 -3 -2 -2 -1 -1 0 1 2 2 2 3 3 3 4 4 4 5 5 5 5 6 6 6 6 6 6 6 6 6 6 6 6 6 6 6 6 6 6 6
-5 -5 -5 -4 -4 -3 -2 -2 -1 -0 0 1 1 2 2 2 3 3 3 4 4 4 5 5 5 5 6 6 6 6 6 6 6 6 5 5 6 6 5 5 5 5 5
-6 -6 -5 -5 -4 -4 -3 -2 -2 -1 -0 0 1 1 1 2 2 2 3 3 3 4 4 4 5 5 5 5 5 5 5 5 5 5 5 5 5 5 5 5 5 5 4
-6 -6 -6 -5 -5 -4 -3 -3 -2 -2 -1 -1 -0 0 1 1 1 2 2 2 3 3 3 4 4 4 4 4 4 4 4 4 5 5 5 5 4 4 4 4 4 4 4
-6 -6 -6 -6 -5 -4 -4 -3 -2 -2 -2 -1 -1 -0 0 0 1 1 1 1 2 2 3 3 3 3 3 4 4 4 4 4 4 4 4 4 4 4 4 4 4 4 3
-7 -7 -6 -6 -5 -4 -4 -3 -3 -3 -2 -2 -1 -1 -1 -0 0 0 1 1 1 2 2 2 2 2 3 3 3 3 3 3 3 3 3 3 3 3 3 3 3 3 3
-7 -7 -7 -6 -5 -5 -4 -4 -3 -3 -3 -2 -2 -2 -1 -1 -1 -0 -0 0 1 1 1 1 1 2 2 2 2 2 2 2 2 2 2 3 3 3 3 3 3 2 2
-7 -7 -7 -6 -6 -5 -5 -5 -4 -4 -4 -3 -3 -2 -2 -2 -1 -1 -1 -0 -0 0 0 0 1 1 1 1 1 2 2 2 2 2 2 2 2 2 2 2 2 2 2
-8 -7 -7 -7 -6 -6 -6 -5 -5 -5 -4 -4 -3 -3 -3 -3 -2 -2 -1 -1 -1 -1 -1 -0 -0 -0 0 0 1 1 1 1 1 1 1 1 1 1 1 1 1 1 1
-8 -8 -7 -7 -7 -6 -6 -6 -6 -5 -5 -5 -4 -4 -3 -3 -3 -2 -2 -2 -2 -1 -1 -1 -1 -1 -1 -0 -0 -0 0 0 0 0 0 0 0 0 0 0 -0 -0 0
-8 -8 -8 -7 -7 -7 -7 -6 -6 -6 -5 -5 -5 -5 -4 -4 -3 -3 -3 -2 -2 -2 -2 -2 -2 -2 -1 -1 -1 -1 -1 -0 -0 -0 -0 -0 -0 -0 -1 -1 -1 -1 -1
-8 -8 -8 -8 -8 -7 -7 -7 -7 -6 -6 -6 -6 -6 -5 -5 -4 -4 -3 -3 -3 -3 -2 -2 -2 -2 -2 -2 -1 -1 -1 -1 -1 -1 -1 -1 -1 -1 -1 -1 -1 -1 -1

GEFSMW_850_meantemp_264.txt.gz
Temperature
5 6 6 7 7 7 8 8 8 8 9 9 9 9 10 10 10 10 10 10 11 11 11 11 11 11 11 11 11 11 11 11 11 11 11 11 11 11 11 11 11 11 11
5 5 6 6 6 7 7 7 7 8 8 8 9 9 9 10 10 10 10 10 10 10 10 11 11 11 11 11 11 11 11 11 11 11 10 10 10 10 10 10 10 10 10
4 4 5 5 6 6 6 6 7 7 7 8 8 8 9 9 9 9 9 9 10 10 10 10 10 10 10 11 11 11 11 11 11 11 11 10 10 10 10 10 10 10 10
3 4 4 5 5 5 5 6 6 6 7 7 7 8 8 8 9 9 9 9 9 9 9 10 10 10 10 10 10 10 11 11 11 10 10 11 11 10 9 9 9 9 10
2 3 3 4 4 5 5 5 5 6 6 6 7 7 8 8 8 8 9 9 9 9 9 9 9 10 10 10 10 10 10 10 11 10 10 10 10 10 10 9 9 9 9
2 2 3 4 4 4 5 5 5 5 6 6 6 6 7 7 8 8 8 8 8 8 9 9 9 9 9 9 10 10 10 10 10 10 10 10 10 10 10 10 9 9 9
1 1 2 3 3 4 4 4 4 5 5 5 6 6 6 7 7 8 8 8 8 8 8 9 9 9 9 9 9 9 9 9 10 10 10 10 10 10 10 10 9 8 8
-0 0 1 2 2 3 3 3 4 4 4 5 5 5 6 6 7 7 7 8 8 8 8 8 8 8 8 9 9 9 9 9 9 9 9 9 10 10 10 10 9 8 8
-1 -1 0 1 1 2 2 3 3 3 4 4 4 5 5 6 6 7 7 7 7 7 8 8 8 8 8 8 8 8 9 9 9 9 9 9 9 9 9 9 9 9 8
-2 -2 -1 -0 0 1 1 2 2 3 3 4 4 4 5 5 6 6 6 6 7 7 7 7 8 8 8 8 8 8 8 8 8 8 8 8 8 8 9 9 8 8 8
-3 -2 -2 -1 -1 0 1 1 2 2 3 3 3 4 4 5 5 6 6 6 6 6 7 7 7 7 7 7 8 8 8 7 8 8 8 8 8 8 8 8 8 8 8
-3 -3 -2 -2 -1 -0 -0 0 1 1 2 2 3 3 4 4 5 5 5 6 6 6 6 6 6 7 7 7 7 7 7 7 7 8 8 8 7 7 7 7 7 7 7
-4 -3 -3 -2 -2 -2 -1 -1 -0 0 1 1 2 2 3 4 4 4 5 5 5 5 6 6 6 6 6 6 7 7 7 7 7 7 7 7 7 7 7 7 7 7 7
-4 -4 -4 -3 -3 -2 -2 -1 -1 -0 0 1 1 2 2 3 3 4 4 4 5 5 5 6 6 6 6 6 6 6 7 7 7 7 7 7 7 7 7 7 7 6 6
-5 -5 -4 -4 -3 -3 -3 -2 -2 -1 -1 -0 0 1 1 2 3 3 3 4 4 4 5 5 5 5 5 6 6 6 6 6 6 6 6 6 7 6 6 6 6 6 6
-6 -5 -5 -5 -4 -4 -3 -3 -2 -2 -1 -1 -0 0 1 1 2 3 3 3 4 4 4 4 4 5 5 5 5 6 6 6 6 6 6 6 6 6 6 6 6 6 6
-6 -6 -5 -5 -5 -4 -4 -4 -3 -2 -2 -1 -1 -1 -0 0 1 2 2 2 3 3 3 4 4 4 4 4 5 5 5 5 5 5 5 5 5 5 5 5 5 5 5
-6 -6 -6 -5 -5 -5 -4 -4 -3 -3 -2 -2 -2 -1 -1 -0 0 1 1 2 2 2 3 3 3 3 4 4 4 4 4 4 5 5 5 5 5 5 5 5 5 5 5
-7 -6 -6 -6 -6 -5 -5 -4 -4 -3 -3 -3 -2 -2 -2 -1 -0 0 1 1 1 2 2 2 3 3 3 3 3 4 4 4 4 4 4 4 4 4 4 4 4 4 4
-7 -7 -6 -6 -6 -5 -5 -5 -5 -4 -4 -3 -3 -2 -2 -2 -1 -1 -0 0 1 1 1 1 2 2 3 3 3 3 3 3 3 3 3 3 3 3 3 4 4 4 4
-7 -7 -7 -6 -6 -6 -6 -5 -5 -5 -4 -4 -3 -3 -2 -2 -2 -1 -0 -0 0 0 1 1 1 2 2 2 2 2 2 2 2 2 3 3 3 3 3 3 3 3 3
-7 -7 -7 -7 -6 -6 -6 -6 -5 -5 -5 -4 -4 -3 -3 -2 -2 -1 -1 -1 -0 -0 0 0 1 1 1 1 2 2 2 2 2 2 2 2 2 2 2 2 2 2 2
-8 -8 -8 -7 -7 -6 -6 -6 -6 -5 -5 -4 -4 -4 -3 -3 -2 -2 -2 -1 -1 -1 -1 -0 -0 0 0 1 1 1 1 1 1 1 1 1 1 1 1 1 1 1 1
-8 -8 -8 -7 -7 -7 -7 -7 -6 -6 -5 -5 -5 -4 -4 -3 -3 -3 -2 -2 -2 -2 -1 -1 -1 -1 -0 -0 0 0 0 0 0 1 1 1 0 0 0 0 0 0 0
-8 -8 -8 -8 -7 -7 -7 -7 -7 -6 -6 -5 -5 -5 -4 -4 -4 -3 -3 -3 -2 -2 -2 -2 -2 -1 -1 -1 -0 -0 -0 -0 -0 -0 -0 -0 -0 -0 -0 -0 -0 -0 -0
-8 -8 -8 -8 -8 -8 -7 -7 -7 -7 -6 -6 -6 -6 -5 -5 -5 -4 -4 -4 -3 -3 -3 -2 -2 -2 -2 -1 -1 -1 -1 -1 -1 -1 -1 -1 -1 -1 -1 -1 -1 -1 -1

GEFSMW_850_meantemp_270.txt.gz
Temperature
3 4 5 5 6 6 6 6 7 7 7 7 8 8 8 9 9 9 9 9 10 10 10 10 10 10 10 10 10 10 10 10 10 10 10 10 10 10 10 10 10 10 10
3 3 4 4 5 5 5 6 6 6 6 7 7 7 8 8 8 8 9 9 9 9 10 10 10 10 10 10 10 10 10 10 10 10 10 10 10 10 10 10 10 10 10
2 2 3 4 4 4 5 5 5 5 6 6 6 7 7 8 8 8 8 8 9 9 9 9 10 10 10 10 10 10 10 10 10 10 10 10 10 10 10 10 10 10 10
1 1 2 3 3 4 4 5 5 5 5 5 6 6 7 7 7 7 8 8 8 8 9 9 9 9 9 10 10 10 10 10 10 10 10 10 10 10 9 9 10 10 10
0 1 1 2 3 3 4 4 4 4 4 5 5 5 6 6 7 7 7 8 8 8 8 8 9 9 9 9 9 9 9 9 9 10 10 10 10 10 10 9 9 9 9
-0 0 1 2 2 3 3 4 4 4 4 4 4 5 5 6 6 6 7 7 7 7 8 8 8 9 9 9 9 9 9 9 9 9 9 10 10 10 10 9 9 9 9
-1 -0 0 1 2 2 3 3 3 4 4 4 4 4 4 5 5 6 6 6 7 7 7 7 8 8 8 8 9 9 9 9 9 9 9 9 9 9 10 10 9 8 8
-2 -1 -1 0 1 1 2 2 3 3 3 3 4 4 4 4 5 5 5 6 6 7 7 7 7 8 8 8 8 8 8 8 8 9 9 9 9 9 9 9 9 8 8
-2 -2 -1 -0 -0 1 1 1 2 2 3 3 3 3 3 4 4 4 5 5 6 6 6 7 7 7 7 7 8 8 8 8 8 8 8 8 8 8 8 8 9 8 8
-3 -2 -2 -1 -1 -0 0 1 1 2 2 2 3 3 3 3 3 4 4 5 5 5 6 6 6 6 7 7 7 7 7 7 8 8 8 8 8 8 8 8 8 8 8
-3 -3 -2 -1 -1 -0 -0 0 1 1 2 2 2 2 3 3 3 3 4 4 5 5 5 6 6 6 6 6 6 7 7 7 7 7 7 7 7 8 7 8 8 8 8
-3 -3 -3 -2 -2 -1 -0 -0 0 1 1 1 1 2 2 2 3 3 3 4 4 4 5 5 5 5 5 6 6 6 6 6 7 7 7 7 7 7 7 7 7 7 7
-4 -3 -3 -3 -2 -2 -1 -1 -1 -0 0 0 1 1 2 2 2 2 3 3 4 4 4 4 5 5 5 5 6 6 6 6 6 6 7 7 7 7 7 7 7 7 7
-4 -4 -4 -3 -3 -3 -2 -2 -1 -1 -1 -0 0 0 1 1 2 2 2 3 3 4 4 4 4 5 5 5 5 5 6 6 6 6 6 6 6 6 6 6 6 6 6
-5 -4 -4 -4 -4 -3 -3 -2 -2 -2 -1 -1 -1 -0 0 1 1 1 2 2 3 3 3 4 4 4 4 4 4 5 5 5 6 6 6 6 6 6 6 6 6 6 6
-5 -5 -5 -5 -4 -4 -4 -3 -3 -2 -2 -2 -1 -1 -1 -0 0 0 1 1 2 2 3 3 3 4 4 4 4 4 5 5 5 5 6 6 6 5 5 5 5 5 5
-6 -6 -5 -5 -5 -5 -4 -4 -3 -3 -3 -2 -2 -2 -1 -1 -1 -0 0 1 1 2 2 2 3 3 3 3 4 4 4 4 5 5 5 5 5 5 5 5 5 5 5
-6 -6 -6 -5 -5 -5 -5 -4 -4 -4 -3 -3 -3 -2 -2 -2 -1 -1 -1 -0 0 1 1 2 2 2 3 3 3 3 4 4 4 4 4 4 5 5 5 5 4 4 4
-7 -6 -6 -6 -6 -5 -5 -5 -4 -4 -4 -4 -3 -3 -3 -2 -2 -2 -1 -1 -1 -0 0 1 1 2 2 2 3 3 3 3 3 3 3 4 4 4 4 4 4 4 4
-7 -7 -6 -6 -6 -6 -6 -5 -5 -5 -5 -4 -4 -4 -3 -3 -3 -2 -2 -2 -1 -1 -1 -0 1 1 1 2 2 2 2 2 3 3 3 3 3 3 3 3 3 3 3
-7 -7 -7 -7 -6 -6 -6 -6 -6 -5 -5 -5 -5 -4 -4 -4 -3 -3 -3 -2 -2 -2 -1 -1 -0 0 1 1 1 2 2 2 2 2 2 2 2 3 3 3 3 3 3
-7 -7 -7 -7 -7 -7 -7 -7 -6 -6 -6 -5 -5 -5 -4 -4 -4 -4 -3 -3 -2 -2 -2 -1 -1 -0 0 0 1 1 1 1 1 2 2 2 2 2 2 2 2 2 2
-8 -8 -8 -7 -7 -7 -7 -7 -7 -6 -6 -6 -5 -5 -5 -5 -5 -4 -4 -3 -3 -3 -3 -2 -2 -1 -1 -0 -0 0 1 1 1 1 1 1 1 1 1 1 1 2 2
-8 -8 -8 -8 -8 -7 -8 -7 -7 -7 -7 -6 -6 -6 -5 -5 -5 -5 -5 -4 -4 -4 -3 -3 -3 -2 -2 -1 -1 -0 -0 0 0 0 0 1 1 1 1 1 1 1 1
-8 -8 -8 -8 -8 -8 -8 -8 -7 -7 -7 -7 -7 -6 -6 -6 -6 -6 -5 -5 -5 -4 -4 -4 -3 -3 -2 -2 -2 -1 -1 -1 -1 -1 -0 -0 -0 -0 0 -0 -0 -0 -0
-9 -9 -9 -8 -8 -8 -8 -8 -8 -8 -8 -7 -7 -7 -7 -7 -6 -6 -6 -5 -5 -5 -4 -4 -4 -3 -3 -2 -2 -2 -2 -1 -1 -1 -1 -1 -1 -1 -1 -1 -0 -1 -1

GEFSMW_850_meantemp_276.txt.gz
Temperature
2 3 3 4 4 5 5 5 6 6 6 6 7 7 7 7 8 8 8 8 9 9 9 9 9 9 9 10 10 10 10 10 10 10 10 10 10 10 10 10 10 10 11
2 2 3 3 4 4 4 5 5 5 6 6 6 6 6 7 7 7 7 8 8 8 8 9 9 9 9 9 9 9 9 9 9 9 9 9 9 10 10 10 10 10 10
1 1 2 2 3 3 4 4 4 5 5 5 5 6 6 6 6 6 7 7 8 8 8 8 8 9 9 9 9 9 9 9 9 9 9 9 10 9 9 10 10 10 10
0 1 1 2 2 2 3 3 4 4 5 5 5 5 5 5 6 6 6 7 7 7 7 8 8 8 8 8 9 9 9 9 9 9 9 9 9 9 9 9 9 9 10
0 0 1 1 1 2 2 3 3 4 4 4 4 4 5 5 5 5 6 6 6 7 7 7 7 8 8 8 8 8 8 9 9 9 9 9 9 9 9 9 9 9 9
-0 -0 0 1 1 1 2 2 3 3 3 4 4 4 4 4 4 5 5 5 6 6 6 7 7 7 8 8 8 8 8 8 8 8 9 9 9 9 9 9 9 9 9
-1 -0 -0 0 0 1 1 1 2 2 3 3 3 3 3 3 4 4 4 4 5 5 6 6 6 7 7 7 8 8 8 8 8 8 8 9 9 9 9 9 8 8 8
-1 -1 -1 -1 -0 0 0 1 1 2 2 2 3 3 3 3 3 3 3 4 4 5 5 6 6 6 7 7 7 7 7 7 8 8 8 8 8 9 9 9 8 8 8
-2 -2 -1 -1 -1 -0 -0 0 1 1 1 2 2 2 3 3 3 3 3 3 4 4 5 5 5 6 6 6 6 7 7 7 7 7 8 8 8 8 8 8 8 8 8
-2 -2 -2 -2 -1 -1 -0 -0 0 1 1 1 2 2 2 2 2 3 3 3 3 4 4 4 5 5 6 6 6 6 7 7 7 7 7 7 8 8 8 8 8 8 8
-3 -3 -2 -2 -2 -1 -1 -1 -0 0 0 1 1 2 2 2 2 2 2 2 3 3 4 4 4 4 5 5 6 6 6 6 6 7 7 7 7 8 8 8 8 8 8
-3 -3 -3 -2 -2 -2 -1 -1 -1 -1 -0 0 0 1 1 1 2 2 2 2 2 3 3 3 4 4 4 5 5 5 6 6 6 6 6 7 7 7 7 7 7 7 7
-4 -3 -3 -3 -3 -2 -2 -2 -1 -1 -1 -1 -0 0 1 1 1 1 2 2 2 2 3 3 3 3 4 4 4 5 5 5 5 6 6 6 6 7 7 7 7 7 7
-4 -4 -4 -3 -3 -3 -2 -2 -2 -2 -1 -1 -1 -0 -0 0 1 1 1 1 2 2 2 2 3 3 3 4 4 4 4 5 5 5 5 6 6 6 6 7 7 7 6
-4 -4 -4 -4 -4 -3 -3 -3 -2 -2 -2 -2 -1 -1 -1 -0 -0 0 1 1 1 1 2 2 2 3 3 3 4 4 4 4 4 4 5 5 5 6 6 6 6 6 6
-5 -5 -4 -4 -4 -4 -4 -4 -3 -3 -2 -2 -2 -2 -1 -1 -1 -0 0 0 1 1 1 1 2 2 2 3 3 3 3 3 4 4 4 5 5 5 5 5 6 6 6
-5 -5 -5 -5 -5 -5 -5 -4 -4 -4 -3 -3 -3 -2 -2 -2 -1 -1 -1 -1 -0 0 0 1 1 1 2 2 3 3 3 3 3 4 4 4 4 4 5 5 5 5 5
-6 -5 -5 -5 -5 -5 -5 -5 -5 -4 -4 -4 -3 -3 -3 -2 -2 -2 -1 -1 -1 -1 -0 0 0 1 1 2 2 2 2 2 3 3 3 3 4 4 4 4 4 4 4
-6 -6 -6 -6 -6 -6 -5 -5 -5 -5 -5 -4 -4 -4 -4 -3 -3 -2 -2 -2 -2 -1 -1 -1 -0 0 1 1 1 1 1 2 2 2 2 3 3 3 3 3 4 4 4
-6 -6 -6 -6 -6 -6 -6 -6 -6 -5 -5 -5 -5 -5 -5 -4 -4 -3 -3 -3 -3 -2 -2 -1 -1 -1 -0 0 0 0 0 1 1 1 2 2 2 3 3 3 3 3 3
-7 -7 -7 -7 -7 -7 -6 -6 -6 -6 -6 -6 -6 -5 -5 -5 -4 -4 -4 -4 -3 -3 -3 -2 -2 -1 -1 -1 -0 -0 -0 0 0 1 1 1 2 2 2 2 2 2 3
-7 -7 -7 -7 -7 -7 -7 -7 -7 -6 -6 -6 -6 -6 -6 -5 -5 -5 -4 -4 -4 -4 -3 -3 -3 -2 -2 -1 -1 -1 -1 -1 -0 -0 0 1 1 1 1 1 2 2 2
-8 -8 -8 -8 -8 -7 -7 -7 -7 -7 -7 -7 -6 -6 -6 -6 -6 -5 -5 -5 -5 -4 -4 -4 -3 -3 -3 -2 -2 -1 -1 -1 -1 -1 -0 -0 0 1 1 1 1 1 1
-8 -8 -8 -8 -8 -8 -8 -8 -7 -7 -7 -7 -7 -7 -6 -6 -6 -6 -6 -5 -5 -5 -5 -5 -4 -4 -4 -3 -3 -2 -2 -2 -2 -1 -1 -1 -1 -0 -0 -0 0 0 0
-9 -9 -9 -9 -8 -8 -8 -8 -8 -8 -7 -7 -7 -7 -7 -7 -6 -6 -6 -6 -6 -6 -5 -5 -5 -5 -4 -4 -3 -3 -3 -2 -2 -2 -2 -2 -1 -1 -1 -1 -1 -1 -1
-9 -9 -9 -9 -9 -9 -8 -8 -8 -8 -8 -8 -8 -7 -7 -7 -7 -7 -7 -7 -6 -6 -6 -6 -5 -5 -5 -4 -4 -3 -3 -3 -3 -2 -2 -2 -2 -2 -2 -2 -1 -1 -1

GEFSMW_850_meantemp_282.txt.gz
Temperature
4 4 4 4 4 4 5 5 5 5 5 6 6 6 7 7 7 7 7 8 8 8 8 8 8 8 8 9 9 9 9 9 9 10 10 10 10 10 10 10 10 10 10
3 3 4 4 4 4 4 4 5 5 5 5 5 6 6 6 7 7 7 7 7 7 8 8 8 8 8 8 8 9 9 9 9 9 9 9 9 9 10 10 10 10 10
3 3 3 3 3 3 3 4 4 4 4 5 5 5 5 6 6 6 6 7 7 7 7 7 8 8 8 8 8 8 9 8 9 9 9 9 9 9 9 10 10 10 10
2 2 2 2 3 3 3 3 4 4 4 4 4 4 4 5 5 5 6 6 6 6 7 7 7 7 7 7 8 8 8 8 8 9 9 9 9 9 9 9 9 9 9
1 2 2 2 2 2 2 3 3 3 3 4 4 4 4 4 5 5 5 5 6 6 6 6 7 7 7 7 7 8 8 8 8 8 9 9 9 9 9 9 9 9 9
1 1 1 1 1 2 2 2 2 2 3 3 3 3 4 4 4 4 5 5 5 5 5 6 6 6 6 7 7 7 7 7 8 8 8 8 9 9 9 9 9 9 9
0 1 1 1 1 1 1 1 1 2 2 2 2 3 3 3 4 4 4 4 5 5 5 5 5 6 6 6 6 7 7 7 7 8 8 8 8 9 9 9 9 8 8
-0 -0 0 0 0 1 1 1 1 1 1 1 2 2 2 3 3 3 4 4 4 4 4 5 5 5 5 6 6 6 6 7 7 7 8 8 8 8 8 9 9 8 8
-1 -1 -0 -0 -0 0 0 0 0 1 1 1 1 2 2 2 3 3 3 3 3 4 4 4 4 5 5 5 5 6 6 6 6 7 7 7 8 8 8 8 9 8 8
-1 -1 -1 -1 -0 -0 -0 -0 -0 0 0 1 1 1 2 2 2 3 3 3 3 3 3 4 4 4 4 5 5 5 5 5 6 6 7 7 7 8 8 8 8 8 8
-2 -1 -1 -1 -1 -1 -1 -1 -1 -0 -0 -0 0 1 1 1 2 2 2 2 2 3 3 3 3 4 4 4 4 5 5 5 5 6 6 6 7 7 7 8 8 8 8
-2 -2 -2 -1 -1 -1 -1 -1 -1 -1 -1 -1 -0 0 0 1 1 1 1 2 2 2 2 2 3 3 3 3 4 4 4 4 5 5 6 6 6 7 7 7 7 7 7
-2 -2 -2 -2 -2 -2 -2 -2 -2 -1 -1 -1 -1 -1 -0 0 0 1 1 1 1 2 2 2 2 2 3 3 3 4 4 4 4 5 5 5 6 6 6 6 7 7 7
-3 -3 -3 -3 -2 -2 -2 -2 -2 -2 -2 -1 -1 -1 -1 -0 -0 0 0 1 1 1 1 1 2 2 2 2 3 3 3 3 4 4 4 5 5 5 6 6 6 6 6
-3 -3 -3 -3 -3 -3 -3 -3 -3 -3 -2 -2 -2 -1 -1 -1 -1 -0 -0 0 0 0 0 1 1 1 2 2 2 2 2 3 3 4 4 4 4 5 5 5 6 6 6
-4 -4 -4 -4 -4 -4 -3 -3 -3 -3 -3 -3 -2 -2 -2 -2 -1 -1 -1 -0 -0 -0 -0 0 1 1 1 1 2 2 2 2 3 3 3 4 4 4 5 5 5 5 5
-4 -4 -4 -4 -4 -4 -4 -4 -4 -4 -4 -3 -3 -3 -3 -2 -2 -2 -2 -1 -1 -1 -1 -0 -0 0 1 1 1 1 1 1 2 2 2 3 3 4 4 4 4 5 5
-5 -5 -5 -5 -5 -5 -5 -5 -5 -4 -4 -4 -4 -3 -3 -3 -3 -2 -2 -2 -2 -2 -1 -1 -1 -0 0 0 0 1 1 1 1 1 2 2 3 3 3 3 4 4 4
-5 -5 -5 -5 -5 -5 -5 -5 -5 -5 -5 -5 -4 -4 -4 -4 -3 -3 -3 -3 -3 -2 -2 -2 -1 -1 -1 -1 -0 -0 0 0 1 1 1 2 2 2 2 3 3 3 3
-5 -6 -6 -6 -6 -5 -6 -6 -6 -5 -5 -5 -5 -5 -5 -4 -4 -4 -4 -3 -3 -3 -3 -2 -2 -2 -1 -1 -1 -1 -1 -0 -0 0 1 1 1 1 2 2 2 2 2
-6 -6 -6 -6 -6 -6 -6 -6 -6 -6 -6 -6 -5 -5 -5 -5 -5 -5 -4 -4 -4 -4 -3 -3 -3 -2 -2 -2 -2 -1 -1 -1 -1 -1 -0 0 1 1 1 1 1 2 2
-6 -7 -7 -7 -7 -7 -7 -7 -6 -6 -6 -6 -6 -6 -5 -5 -5 -5 -5 -5 -5 -4 -4 -4 -4 -3 -3 -3 -3 -2 -2 -2 -1 -1 -1 -0 -0 0 0 0 1 1 1
-7 -7 -7 -7 -7 -7 -7 -7 -7 -7 -7 -7 -6 -6 -6 -6 -6 -6 -6 -5 -5 -5 -5 -5 -5 -4 -4 -4 -3 -3 -3 -2 -2 -2 -2 -1 -1 -1 -0 -0 -0 -0 0
-8 -8 -8 -8 -8 -8 -8 -8 -8 -7 -7 -7 -7 -7 -6 -6 -6 -6 -6 -6 -6 -6 -5 -5 -5 -5 -5 -4 -4 -4 -3 -3 -3 -3 -2 -2 -2 -2 -1 -1 -1 -1 -1
-8 -8 -8 -8 -8 -8 -8 -8 -8 -8 -8 -8 -7 -7 -7 -7 -7 -7 -7 -7 -6 -6 -6 -6 -6 -5 -5 -5 -5 -4 -4 -4 -4 -4 -3 -3 -3 -3 -2 -2 -2 -1 -1
-9 -9 -9 -9 -9 -9 -8 -8 -8 -8 -8 -8 -8 -8 -8 -8 -7 -7 -7 -7 -7 -7 -6 -6 -6 -6 -6 -5 -5 -5 -5 -4 -4 -4 -4 -4 -4 -3 -3 -3 -2 -2 -2